Location: Brno
(49.2000°N, 16.6330°E)
Time: 01:13:28
(UTC+02:00)

Transit 4A - Pass Details

Date: 03 August 2021
Orbit: 870 x 974 km, 66.8° (Epoch: 26 September)

Event Time Altitude Azimuth Distance (km) Brightness Sun altitude
Rises 09:48:17 0° 319° (NW) 3,478 10.5 40.2°
Reaches altitude 10° 09:50:56 10° 311° (NW) 2,544 9.9 40.6°
Maximum altitude 09:56:12 35° 247° (WSW) 1,399 8.9 41.3°
Drops below altitude 10° 10:01:32 10° 184° (S) 2,580 10.6 42.1°
Sets 10:04:15 0° 175° (S) 3,534 11.2 42.5°
